Regional Weather Roundup
Issued by NWS

Home | Current Version | Previous Version | Text Only | Print | Product List | Glossary On
Versions: 1 2 3 4 5 6 7 8 9 10 11 12 13 14 15 16 17 18 19 20 21 22 23 24 25 26 27 28 29 30 31 32 33 34 35 36 37 38 39 40 41 42 43 44 45 46 47 48 49 50
000
ASUS43 KTOP 261359
RWRKS

WEATHER ROUNDUP FOR KANSAS
NATIONAL WEATHER SERVICE GOODLAND KS
900 AM CDT SAT JUL 26 2014

NOTE:  "FAIR" INDICATES FEW OR NO CLOUDS BELOW 12,000 FEET WITH NO
SIGNIFICANT WEATHER AND/OR OBSTRUCTIONS TO VISIBILITY.

KSZ001>006-013>018-027>032-041>047-261500-
NORTHWEST KANSAS

CITY           SKY/WX    TMP DP  RH WIND       PRES   REMARKS
GOODLAND       SUNNY     76  64  66 W9        30.00R
HAYS           MOSUNNY   77  68  73 N12       29.88R
HILL CITY      SUNNY     80  66  62 NW7       29.91R
RUSSELL        PTSUNNY   83  65  54 NW5       29.86R
$$

KSZ061>065-074>080-084>089-261500-
SOUTHWEST KANSAS

CITY           SKY/WX    TMP DP  RH WIND       PRES   REMARKS
DODGE CITY     MOSUNNY   79  57  46 SW10      29.92R
ELKHART          N/A     81  56  42 SW6         N/A
GARDEN CITY    MOSUNNY   75  64  68 W6        29.94R
GREAT BEND     PTSUNNY   79  61  53 S7        29.86R
LIBERAL        MOSUNNY   81  52  36 SW12      29.99R
$$

KSZ066>073-081>083-090>101-261500-
SOUTHEAST KANSAS

CITY           SKY/WX    TMP DP  RH WIND       PRES   REMARKS
CHANUTE        MOSUNNY   82  70  66 SW14G25   29.90R
COFFEYVILLE    SUNNY     81  72  74 S13G21    29.91S
HUTCHINSON     CLOUDY    80  62  54 S7        29.87S
MEDICINE LODGE   N/A     80  63  55 S7        29.88R
NEWTON         CLOUDY    79  61  53 SW15      29.92R
PARSONS        MOSUNNY   82  70  66 SW13      29.93R
WICHITA INTL   PTSUNNY   82  65  56 SW12      29.88R
WICHITA JABRA  PTSUNNY   83  65  54 SW9       29.89R
WINFIELD       MOSUNNY   82  68  62 S16G24    29.91R
$$

KSZ007>012-019>026-033>040-048>060-102>105-261500-
NORTHEAST KANSAS

CITY           SKY/WX    TMP DP  RH WIND       PRES   REMARKS
CONCORDIA      CLOUDY    80  74  81 CALM      29.82S
EMPORIA        CLOUDY    84  65  52 SW13      29.86R
LAWRENCE       CLOUDY    83  70  64 S8        29.82R
MANHATTAN      CLOUDY    84  63  49 SW12      29.81R
OLATHE IND     PTSUNNY   81  70  69 S13       29.85S
OLATHE EXE     PTSUNNY   81  70  69 SW12      29.84S
SALINA         CLOUDY    80  61  52 SE7       29.84R
TOPEKA BILLARD CLOUDY    83  69  62 SW3       29.83R
TOPEKA FORBES  CLOUDY    82  67  60 SW8       29.83R
$$



USA.gov is the U.S. government's official web portal to all federal, state and local government web resources and services.